[[{"header":{"parameterUnit":"m.s-1","parameterCategory":1,"la1":30.2992,"la2":30.254,"lo1":-89.0895,"lo2":-89.0443,"dy":0.0025,"dx":0.0025,"nx":19,"ny":19,"refTime":"2026-04-26T03:00:00:Z","depth":0,"parameterNumber":2,"parameterNumberName":"U-component_of_WINDS"},"data":[0,0,0,2.4053,2.4056,2.4201,2.4201,2.4382,2.4384,0,0,0,0,0,0,0,0,0,0,0,2.4008,2.4009,2.4053,2.4056,2.4201,2.4201,2.4382,2.4384,0,0,0,0,0,0,0,0,0,0,0,2.4008,2.4009,2.401,2.4057,2.42,2.4201,2.4381,2.4274,0,0,0,0,0,0,0,0,0,0,2.4134,2.4091,2.4009,2.401,2.4058,2.42,2.4201,2.4269,2.4281,2.4315,0,2.4345,0,2.4367,2.4395,2.4396,0,0,0,2.4058,2.4081,2.4122,2.4011,2.4059,2.42,2.4136,2.4275,2.4289,2.4331,2.4348,2.4354,2.437,2.4397,2.4397,2.4588,2.4589,0,0,2.405,2.4033,2.4112,2.413,2.4108,2.4131,2.4141,2.4284,2.4301,2.4348,2.4359,2.4373,2.4398,2.4399,2.4588,2.4589,0,0,0,2.4026,2.4027,2.4065,2.4123,2.4149,2.4136,2.4146,2.4295,2.4308,2.4361,2.4375,2.4399,2.4401,2.4587,2.4588,2.4609,0,0,0,2.4021,2.4013,2.4061,2.4052,2.4146,2.4224,2.4154,2.4298,2.4315,2.4374,2.4399,2.4403,2.4586,2.4587,2.4607,2.4622,0,0,0,2.4,2.4011,2.4031,2.4051,2.4112,2.4222,2.4244,2.4302,2.4324,2.4396,2.4403,2.4585,2.4587,2.4605,2.4618,2.4665,0,0,0,2.3971,2.4049,2.4031,2.4124,2.4111,2.4234,2.4243,2.4336,2.4401,2.44,2.4586,2.4588,2.4604,2.4616,2.4663,2.47,2.4714,0,0,2.406,2.4059,2.4115,2.4103,2.4225,2.4214,2.4339,2.4415,2.4439,2.4537,2.4542,2.4608,2.4618,2.4665,2.4805,2.4816,0,0,0,2.4138,2.4177,2.4213,2.4274,2.4333,2.4385,2.4444,2.4472,2.4556,2.4486,2.4639,2.4646,2.4674,2.4692,2.4702,2.4726,2.4596,2.4596,2.4596,2.4238,2.4262,2.4356,2.4397,2.4456,2.4515,2.4564,2.4612,2.4621,2.4657,2.4686,2.4768,2.4789,2.4796,2.4821,2.4709,2.4709,2.4709,2.4709,2.4368,2.4427,2.4436,2.4529,2.4555,2.4634,2.4694,2.4697,2.4774,2.4749,2.4774,2.4742,2.4808,2.483,2.4711,2.4711,2.4711,2.4711,2.471,2.4434,2.4467,2.4499,2.4588,2.4653,2.4693,2.4766,2.4788,2.4808,2.4834,2.4865,2.4865,2.4865,2.4848,2.4848,2.4848,2.4849,2.4849,2.4849,2.4489,2.4525,2.4584,2.4652,2.4693,2.4749,2.4809,2.485,2.49,2.491,2.491,2.4914,2.481,2.4782,2.4854,2.4853,2.4852,2.4852,2.4851,2.4608,2.4585,2.4675,2.4715,2.4797,2.4859,2.4886,2.4966,2.5003,2.5038,2.5037,2.4958,2.4958,2.4951,2.4928,2.5033,2.5033,2.5033,2.5033,2.4662,2.4665,2.4761,2.4824,2.4888,2.4921,2.5021,2.5068,2.5113,2.5137,2.5125,2.5097,2.5089,2.5095,2.5084,2.5062,2.5199,2.5199,2.52,2.4736,2.4746,2.4826,2.4869,2.4935,2.499,2.5083,2.5155,2.5202,2.5207,2.5155,2.5148,2.5103,2.5088,2.509,2.5073,2.5034,0,0]},{"header":{"parameterUnit":"m.s-1","parameterCategory":1,"la1":30.2992,"la2":30.254,"lo1":-89.0895,"lo2":-89.0443,"dy":0.0025,"dx":0.0025,"nx":19,"ny":19,"refTime":"2026-04-26T03:00:00:Z","depth":0,"parameterNumber":3,"parameterNumberName":"V-component_of_WINDS"},"data":[0,0,0,1.3643,1.3643,1.3617,1.3617,1.3584,1.3583,0,0,0,0,0,0,0,0,0,0,0,1.3652,1.3652,1.3643,1.3643,1.3617,1.3617,1.3584,1.3583,0,0,0,0,0,0,0,0,0,0,0,1.3652,1.3652,1.3652,1.3643,1.3617,1.3617,1.3584,1.3603,0,0,0,0,0,0,0,0,0,0,1.3628,1.3638,1.3652,1.3652,1.3642,1.3617,1.3617,1.3604,1.3602,1.3596,0,1.3592,0,1.3587,1.3581,1.3581,0,0,0,1.3641,1.364,1.3632,1.3652,1.3642,1.3617,1.3628,1.3603,1.36,1.3593,1.3592,1.359,1.3587,1.3581,1.3581,1.3555,1.3555,0,0,1.3643,1.3648,1.3633,1.363,1.3636,1.3629,1.3627,1.3601,1.36,1.3592,1.359,1.3586,1.3581,1.358,1.3555,1.3555,0,0,0,1.3648,1.3649,1.3642,1.3632,1.3627,1.3628,1.3626,1.3601,1.3598,1.3589,1.3586,1.3581,1.358,1.3555,1.3555,1.3559,0,0,0,1.3648,1.3652,1.3642,1.3646,1.3628,1.3614,1.3627,1.36,1.3597,1.3586,1.3581,1.358,1.3555,1.3555,1.3559,1.3559,0,0,0,1.3653,1.3653,1.365,1.3646,1.3635,1.3614,1.361,1.3599,1.3595,1.3581,1.358,1.3555,1.3555,1.3559,1.3559,1.3554,0,0,0,1.366,1.3653,1.365,1.364,1.3636,1.3617,1.361,1.3596,1.3585,1.358,1.3555,1.3555,1.3559,1.3559,1.3554,1.355,1.3549,0,0,1.3654,1.3653,1.3646,1.3643,1.3627,1.3621,1.3604,1.3588,1.3581,1.3564,1.3563,1.3559,1.3559,1.3554,1.3543,1.3543,0,0,0,1.3646,1.3642,1.3636,1.3627,1.3615,1.3604,1.359,1.3584,1.3569,1.3574,1.3555,1.3555,1.3552,1.355,1.3549,1.3545,1.3554,1.3555,1.3555,1.3646,1.3638,1.3627,1.3616,1.3606,1.3591,1.3582,1.3571,1.3565,1.3561,1.3556,1.3551,1.3548,1.3548,1.3544,1.3553,1.3553,1.3553,1.3553,1.3636,1.3628,1.3621,1.3608,1.3599,1.3587,1.3572,1.3568,1.3554,1.3554,1.3551,1.3551,1.3548,1.3544,1.3554,1.3554,1.3554,1.3554,1.3554,1.3635,1.363,1.3623,1.3608,1.3596,1.3584,1.3572,1.3564,1.3556,1.3553,1.3546,1.3545,1.3544,1.355,1.355,1.355,1.355,1.355,1.355,1.3636,1.3628,1.362,1.3606,1.3598,1.3587,1.3572,1.3563,1.3552,1.3547,1.3546,1.354,1.3549,1.3552,1.355,1.355,1.355,1.355,1.355,1.3629,1.3629,1.3616,1.3608,1.3591,1.3579,1.3569,1.3553,1.3544,1.3538,1.3533,1.3541,1.3538,1.3539,1.354,1.3535,1.3535,1.3535,1.3535,1.3627,1.3625,1.3609,1.3597,1.3585,1.3574,1.3557,1.3545,1.3531,1.3525,1.3525,1.3526,1.3527,1.3524,1.3524,1.3526,1.3517,1.3517,1.3517,1.3622,1.3618,1.3606,1.3595,1.358,1.3568,1.3551,1.3537,1.3521,1.3516,1.352,1.3521,1.3523,1.3525,1.352,1.3521,1.3523,0,0]}]]